KK5DC Weather Reports


time (UTC)temp
C
wind
direction
speed
KPH
gust
KPH
rain 1hr
cm
rain 24hr
cm
rain mn
cm
humidity
%
barometer
mb
20260506215506 20 38 3.2 24.1 0.00 0.00 0.00 71 1012.4
20260506215503 20 331 1.6 24.1 0.00 0.00 0.00 71 1011.8
20260506215012 20 240 3.2 19.3 0.00 0.00 0.00 72 1012.4
20260506215006 20 331 4.8 19.3 0.00 0.00 0.00 72 1011.9
20260506214524 20 311 4.8 25.7 0.00 0.00 0.00 70 1011.7
20260506214522 20 22 4.8 25.7 0.00 0.00 0.00 70 1012.3
20260506214008 20 352 9.7 25.7 0.00 0.00 0.00 71 1012.3
20260506214006 20 296 11.3 25.7 0.00 0.00 0.00 71 1011.7
20260506213508 20 32 6.4 19.3 0.00 0.00 0.00 72 1012.3
20260506213503 20 346 8.0 22.5 0.00 0.00 0.00 72 1011.8
20260506213030 20 330 4.8 19.3 0.00 0.00 0.00 71 1012.5
20260506213006 20 308 6.4 19.3 0.00 0.00 0.00 71 1012.0
20260506212508 20 5 6.4 17.7 0.00 0.00 0.00 73 1012.7
20260506212503 20 343 6.4 17.7 0.00 0.00 0.00 73 1012.2
20260506212005 21 337 1.6 16.1 0.00 0.00 0.00 74 1012.8
20260506212003 21 329 3.2 19.3 0.00 0.00 0.00 74 1012.2
20260506211513 20 360 1.6 16.1 0.00 0.00 0.00 74 1012.7
20260506211510 20 322 4.8 19.3 0.00 0.00 0.00 74 1012.2
20260506211006 21 25 4.8 14.5 0.00 0.00 0.00 72 1012.7
20260506211003 21 302 6.4 16.1 0.00 0.00 0.00 72 1012.1
20260506210506 21 37 3.2 16.1 0.00 0.00 0.00 72 1012.0
20260506210015 21 329 4.8 19.3 0.00 0.00 0.00 75 1012.1
20260506210012 21 239 3.2 19.3 0.00 0.00 0.00 75 1012.7
20260506205508 20 313 3.2 19.3 0.00 0.00 0.00 74 1012.2
20260506205011 21 318 3.2 20.9 0.00 0.00 0.00 74 1012.1
20260506205008 21 308 3.2 20.9 0.00 0.00 0.00 74 1012.9
20260506204536 21 30 6.4 16.1 0.00 0.00 0.00 74 1013.0
20260506204510 21 11 4.8 16.1 0.00 0.00 0.00 74 1012.1
20260506204010 21 64 6.4 19.3 0.00 0.00 0.00 74 1012.9
20260506204006 21 331 4.8 19.3 0.00 0.00 0.00 74 1012.1
20260506203511 21 323 4.8 19.3 0.00 0.00 0.00 74 1012.7
20260506203505 21 339 4.8 19.3 0.00 0.00 0.00 74 1012.0
20260506203029 21 34 3.2 16.1 0.00 0.00 0.00 75 1012.7
20260506202504 22 80 4.8 16.1 0.00 0.00 0.00 75 1012.4
20260506202007 22 38 4.8 16.1 0.00 0.00 0.00 74 1012.2
20260506202005 22 352 6.4 16.1 0.00 0.00 0.00 74 1011.8
20260506201526 22 26 4.8 22.5 0.00 0.00 0.00 75 1012.2
20260506201512 22 317 3.2 22.5 0.00 0.00 0.00 75 1011.8
20260506201005 22 317 1.6 22.5 0.00 0.00 0.00 76 1012.2
20260506200503 22 312 6.4 16.1 0.00 0.00 0.00 75 1011.6
20260506200020 22 336 3.2 16.1 0.00 0.00 0.00 77 1011.7
20260506200016 22 289 3.2 11.3 0.00 0.00 0.00 77 1012.2
20260506195508 23 13 1.6 16.1 0.00 0.00 0.00 76 1012.1
20260506195506 23 327 4.8 16.1 0.00 0.00 0.00 76 1011.6
20260506195010 23 275 4.8 17.7 0.00 0.00 0.00 75 1012.1
20260506195006 23 325 3.2 17.7 0.00 0.00 0.00 75 1011.6
20260506194520 23 352 3.2 17.7 0.00 0.00 0.00 74 1012.1
20260506194010 25 333 1.6 9.7 0.00 0.00 0.00 75 1012.0
20260506193507 25 15 1.6 9.7 0.00 0.00 0.00 76 1011.9
20260506193504 25 300 3.2 9.7 0.00 0.00 0.00 76 1011.4
20260506193017 25 264 0.0 9.7 0.00 0.00 0.00 75 1011.9
20260506192508 25 330 3.2 9.7 0.00 0.00 0.00 73 1011.9
20260506192011 25 339 3.2 11.3 0.00 0.00 0.00 74 1011.4
20260506192008 25 19 3.2 8.0 0.00 0.00 0.00 74 1011.9
20260506191514 25 68 1.6 8.0 0.00 0.00 0.00 71 1012.0
20260506191512 25 5 3.2 11.3 0.00 0.00 0.00 71 1011.5
20260506191006 25 11 3.2 11.3 0.00 0.00 0.00 71 1012.1
20260506191004 25 326 4.8 11.3 0.00 0.00 0.00 71 1011.5
20260506190504 26 334 3.2 9.7 0.00 0.00 0.00 72 1011.5
20260506190015 25 39 1.6 8.0 0.00 0.00 0.00 74 1012.3
20260506190007 25 333 1.6 8.0 0.00 0.00 0.00 74 1011.5
20260506185506 25 288 0.0 9.7 0.00 0.00 0.00 73 1012.2
20260506185504 25 296 3.2 9.7 0.00 0.00 0.00 73 1011.5
20260506185008 24 265 1.6 9.7 0.00 0.00 0.00 75 1011.4
20260506185004 24 90 1.6 9.7 0.00 0.00 0.00 75 1012.0
20260506184518 23 325 3.2 8.0 0.00 0.00 0.00 77 1011.4
20260506184008 22 333 1.6 9.7 0.00 0.00 0.00 75 1011.4
20260506184004 22 335 3.2 8.0 0.00 0.00 0.00 75 1012.0
20260506183508 23 315 3.2 9.7 0.00 0.00 0.00 72 1011.4
20260506183022 23 65 3.2 9.7 0.00 0.00 0.00 76 1011.4
20260506182510 23 346 3.2 9.7 0.00 0.00 0.00 76 1011.3
20260506182508 23 51 1.6 8.0 0.00 0.00 0.00 76 1011.8
20260506182008 22 10 3.2 9.7 0.00 0.00 0.00 78 1011.9
20260506182006 22 329 3.2 14.5 0.00 0.00 0.00 78 1011.3
20260506181527 22 130 3.2 9.7 0.00 0.00 0.00 77 1011.9
20260506181524 22 327 3.2 14.5 0.00 0.00 0.00 77 1011.3
20260506181010 21 107 3.2 9.7 0.00 0.00 0.00 77 1011.4
20260506181007 21 11 3.2 8.0 0.00 0.00 0.00 77 1012.0
20260506180506 22 265 1.6 8.0 0.00 0.00 0.00 79 1011.9
20260506180503 22 348 4.8 9.7 0.00 0.00 0.00 79 1011.3
20260506180018 21 348 1.6 6.4 0.00 0.00 0.00 83 1012.1
20260506180012 21 286 4.8 9.7 0.00 0.00 0.00 83 1011.5
20260506175508 21 51 3.2 12.9 0.00 0.00 0.00 78 1011.6
20260506175503 21 16 3.2 12.9 0.00 0.00 0.00 78 1012.2
20260506175008 20 68 4.8 12.9 0.00 0.00 0.00 80 1011.4
20260506175004 20 127 4.8 12.9 0.00 0.00 0.00 80 1012.1
20260506174516 20 51 1.6 9.7 0.00 0.00 0.00 82 1012.1
20260506174008 19 127 1.6 9.7 0.00 0.00 0.00 83 1012.3
20260506174006 19 325 3.2 14.5 0.00 0.00 0.00 83 1011.6
20260506173511 19 61 4.8 14.5 0.00 0.00 0.00 81 1011.9
20260506173507 19 140 1.6 8.0 0.00 0.00 0.00 81 1012.6
20260506173014 19 184 0.0 9.7 0.00 0.00 0.00 85 1012.7
20260506172507 18 9 3.2 11.3 0.00 0.00 0.00 85 1012.0
20260506172008 18 315 4.8 12.9 0.00 0.00 0.00 84 1012.2
20260506171535 18 339 0.0 17.7 0.00 0.00 0.00 86 1013.3
20260506171525 18 280 1.6 17.7 0.00 0.00 0.00 86 1012.4
20260506171007 17 336 4.8 17.7 0.00 0.00 0.00 85 1013.4
20260506170509 18 25 3.2 27.4 0.00 0.00 0.00 86 1013.4
20260506170029 17 288 8.0 16.1 0.00 0.00 0.00 86 1012.6
20260506170027 17 59 9.7 20.9 0.00 0.00 0.00 86 1013.5
20260506165510 17 22 3.2 16.1 0.00 0.00 0.00 87 1013.4
20260506165506 17 338 4.8 16.1 0.00 0.00 0.00 87 1012.4
20260506165007 17 331 4.8 17.7 0.00 0.00 0.00 88 1013.6
20260506165003 17 329 4.8 17.7 0.00 0.00 0.00 88 1012.8
20260506164517 17 16 8.0 17.7 0.00 0.00 0.00 87 1013.8
20260506164514 17 343 6.4 17.7 0.00 0.00 0.00 87 1012.9
20260506164008 17 12 4.8 16.1 0.00 0.00 0.00 87 1013.9
20260506164005 17 319 4.8 17.7 0.00 0.00 0.00 87 1013.0
20260506163507 17 343 3.2 27.4 0.00 0.00 0.00 87 1013.3
20260506163020 18 20 6.4 25.7 0.00 0.00 0.00 87 1014.1
20260506163018 18 338 6.4 27.4 0.00 0.00 0.00 87 1013.3
20260506162508 18 9 6.4 25.7 0.00 0.00 0.00 87 1014.3
20260506162012 18 26 8.0 22.5 0.00 0.00 0.00 86 1014.2
20260506162006 18 292 6.4 22.5 0.00 0.00 0.00 86 1013.4
20260506161522 19 5 3.2 19.3 0.00 0.00 0.00 86 1014.2
20260506161013 20 288 4.8 20.9 0.00 0.00 0.00 85 1013.9
20260506161007 20 5 3.2 14.5 0.00 0.00 0.00 85 1013.2
20260506160513 21 341 4.8 24.1 0.00 0.00 0.00 82 1012.9
20260506160508 21 39 9.7 24.1 0.00 0.00 0.00 82 1013.8
20260506160016 22 317 6.4 19.3 0.00 0.00 0.00 78 1012.7
20260506160008 22 322 4.8 24.1 0.00 0.00 0.00 78 1013.7
20260506155509 25 323 1.6 4.8 0.00 0.00 0.00 86 1012.4
20260506155503 25 360 0.0 3.2 0.00 0.00 0.00 86 1013.4
20260506155011 25 339 0.0 3.2 0.00 0.00 0.00 86 1012.1
20260506155003 25 69 0.0 3.2 0.00 0.00 0.00 86 1013.1
20260506154516 25 44 0.0 3.2 0.00 0.00 0.00 87 1011.9
20260506154513 25 63 0.0 3.2 0.00 0.00 0.00 87 1012.8
20260506154008 25 44 0.0 3.2 0.00 0.00 0.00 86 1011.9
20260506153509 25 43 0.0 3.2 0.00 0.00 0.00 87 1012.7
20260506153506 25 327 0.0 4.8 0.00 0.00 0.00 87 1011.8
20260506153016 25 327 1.6 4.8 0.00 0.00 0.00 86 1011.4
20260506153011 25 10 1.6 3.2 0.00 0.00 0.00 86 1012.2
20260506152508 24 12 0.0 3.2 0.00 0.00 0.00 87 1012.2
20260506152506 24 56 0.0 3.2 0.00 0.00 0.00 87 1011.4
20260506152010 24 169 1.6 3.2 0.00 0.00 0.00 87 1012.3
20260506152007 24 352 1.6 4.8 0.00 0.00 0.00 87 1011.4
20260506151523 24 332 0.0 4.8 0.00 0.00 0.00 88 1011.4
20260506151508 24 18 0.0 3.2 0.00 0.00 0.00 88 1012.3
20260506151010 24 5 1.6 3.2 0.00 0.00 0.00 87 1012.2
20260506151005 24 329 1.6 3.2 0.00 0.00 0.00 87 1011.3
20260506150511 24 132 0.0 4.8 0.00 0.00 0.00 87 1012.0
20260506150507 24 44 0.0 3.2 0.00 0.00 0.00 87 1011.1
20260506150031 24 150 0.0 4.8 0.00 0.00 0.00 87 1011.9
20260506150006 24 27 0.0 4.8 0.00 0.00 0.00 87 1011.1
20260506145504 24 97 1.6 4.8 0.00 0.00 0.00 87 1011.0
20260506145005 24 114 1.6 4.8 0.00 0.00 0.00 87 1011.6
20260506145003 24 114 1.6 6.4 0.00 0.00 0.00 87 1010.8
20260506144512 24 108 1.6 4.8 0.00 0.00 0.00 88 1011.4
20260506144502 24 56 3.2 6.4 0.00 0.00 0.00 88 1010.7
20260506144005 24 92 0.0 4.8 0.00 0.00 0.00 89 1011.3
20260506144002 24 88 0.0 3.2 0.00 0.00 0.00 89 1010.6
20260506143506 23 100 1.6 3.2 0.00 0.00 0.00 90 1010.7
20260506143034 23 152 0.0 3.2 0.00 0.00 0.00 90 1011.5
20260506143005 23 151 0.0 3.2 0.00 0.00 0.00 90 1010.7
20260506142509 23 77 0.0 3.2 0.00 0.00 0.00 90 1011.8
20260506142503 23 151 0.0 3.2 0.00 0.00 0.00 90 1010.9
20260506142004 23 77 0.0 3.2 0.00 0.00 0.00 90 1011.7
20260506142002 23 151 0.0 3.2 0.00 0.00 0.00 90 1010.9
20260506141523 23 151 0.0 3.2 0.00 0.00 0.00 89 1010.9
20260506141520 23 77 0.0 3.2 0.00 0.00 0.00 89 1011.9
20260506141008 23 120 0.0 3.2 0.00 0.00 0.00 89 1011.7
20260506141006 23 151 0.0 3.2 0.00 0.00 0.00 89 1010.8
20260506140505 23 132 0.0 3.2 0.00 0.00 0.00 90 1011.3
20260506140014 23 132 0.0 3.2 0.00 0.00 0.00 90 1010.9
20260506140003 23 131 0.0 3.2 0.00 0.00 0.00 90 1010.2
20260506135507 23 92 0.0 4.8 0.00 0.00 0.00 89 1010.8
20260506135503 23 86 0.0 4.8 0.00 0.00 0.00 89 1010.2
20260506135008 23 116 0.0 4.8 0.00 0.00 0.00 89 1010.7
20260506135005 23 86 1.6 4.8 0.00 0.00 0.00 89 1010.1
20260506134508 23 107 1.6 3.2 0.00 0.00 0.00 89 1010.7
20260506134003 23 127 0.0 3.2 0.00 0.00 0.00 89 1010.8
20260506133506 23 121 1.6 4.8 0.00 0.00 0.00 89 1010.7
20260506133503 23 91 0.0 4.8 0.00 0.00 0.00 89 1010.0
20260506133009 23 143 1.6 4.8 0.00 0.00 0.00 89 1010.7
20260506133007 23 91 0.0 3.2 0.00 0.00 0.00 89 1010.0
20260506132511 23 130 0.0 3.2 0.00 0.00 0.00 90 1010.7
20260506132504 23 78 0.0 3.2 0.00 0.00 0.00 90 1010.0
20260506132009 23 74 0.0 3.2 0.00 0.00 0.00 90 1010.8
20260506132006 23 78 0.0 3.2 0.00 0.00 0.00 90 1010.0
20260506131522 23 108 0.0 3.2 0.00 0.00 0.00 90 1010.8
20260506131507 23 78 0.0 3.2 0.00 0.00 0.00 90 1010.0
20260506131004 23 78 0.0 3.2 0.00 0.00 0.00 90 1010.0
20260506130510 23 82 0.0 3.2 0.00 0.00 0.00 90 1010.8
20260506130506 23 59 0.0 3.2 0.00 0.00 0.00 90 1009.9
20260506130025 23 100 0.0 3.2 0.00 0.00 0.00 91 1010.8
20260506130004 23 144 0.0 3.2 0.00 0.00 0.00 91 1010.0
20260506125504 23 161 0.0 3.2 0.00 0.00 0.00 91 1009.9
20260506125006 23 109 0.0 3.2 0.00 0.00 0.00 91 1010.7
20260506125003 23 161 0.0 3.2 0.00 0.00 0.00 91 1009.9
20260506124520 23 140 0.0 3.2 0.00 0.00 0.00 91 1010.8
20260506124507 23 161 0.0 3.2 0.00 0.00 0.00 91 1010.0
20260506124008 23 140 0.0 3.2 0.00 0.00 0.00 91 1010.8
20260506124003 23 161 0.0 3.2 0.00 0.00 0.00 91 1010.0
20260506123505 23 161 0.0 3.2 0.00 0.00 0.00 91 1009.9
20260506123014 23 161 0.0 3.2 0.00 0.00 0.00 91 1009.9
20260506123010 23 140 0.0 3.2 0.00 0.00 0.00 91 1010.7
20260506122504 23 173 0.0 3.2 0.00 0.00 0.00 92 1010.6
20260506122006 23 215 0.0 3.2 0.00 0.00 0.00 91 1010.5
20260506122003 23 147 1.6 3.2 0.00 0.00 0.00 91 1009.7
20260506121520 23 171 0.0 3.2 0.00 0.00 0.00 92 1009.8
20260506121515 23 215 0.0 3.2 0.00 0.00 0.00 92 1010.5
20260506121007 23 171 0.0 3.2 0.00 0.00 0.00 91 1009.7
20260506121005 23 215 0.0 0.0 0.00 0.00 0.00 91 1010.4
20260506120510 22 215 0.0 0.0 0.00 0.00 0.00 91 1010.4
20260506120503 22 171 0.0 0.0 0.00 0.00 0.00 91 1009.8
20260506120022 22 171 0.0 0.0 0.00 0.00 0.00 91 1009.7
20260506120013 22 215 0.0 0.0 0.00 0.00 0.00 91 1010.4
20260506115509 22 171 0.0 0.0 0.00 0.00 0.00 91 1009.8
20260506115506 22 215 0.0 0.0 0.00 0.00 0.00 91 1010.4
20260506115010 22 215 0.0 0.0 0.00 0.00 0.00 91 1010.4
20260506115003 22 171 0.0 0.0 0.00 0.00 0.00 91 1009.7
20260506114512 23 215 0.0 0.0 0.00 0.00 0.00 91 1010.3
20260506114505 23 171 0.0 0.0 0.00 0.00 0.00 91 1009.7
20260506114006 23 215 0.0 0.0 0.00 0.00 0.00 91 1010.2
20260506114004 23 171 0.0 3.2 0.00 0.00 0.00 91 1009.7
20260506113509 23 215 0.0 0.0 0.00 0.00 0.00 91 1010.3
20260506113502 23 171 0.0 3.2 0.00 0.00 0.00 91 1009.7
20260506113024 23 215 0.0 0.0 0.00 0.00 0.00 91 1010.3
20260506113008 23 171 0.0 3.2 0.00 0.00 0.00 91 1009.8
20260506112504 23 171 0.0 1.6 0.00 0.00 0.00 91 1009.7
20260506112502 23 215 0.0 0.0 0.00 0.00 0.00 91 1010.3
20260506112007 23 171 0.0 3.2 0.00 0.00 0.00 90 1009.6
20260506112004 23 215 0.0 3.2 0.00 0.00 0.00 90 1010.3
20260506111515 23 215 0.0 3.2 0.00 0.00 0.00 90 1010.2
20260506111006 23 215 0.0 3.2 0.00 0.00 0.00 89 1010.2
20260506111004 23 171 0.0 4.8 0.00 0.00 0.00 89 1009.6
20260506110506 23 209 0.0 3.2 0.00 0.00 0.00 90 1010.2
20260506110504 23 159 1.6 4.8 0.00 0.00 0.00 90 1009.5
20260506110022 23 209 0.0 3.2 0.00 0.00 0.00 89 1010.2
20260506110020 23 170 1.6 4.8 0.00 0.00 0.00 89 1009.6
20260506105508 23 209 0.0 3.2 0.00 0.00 0.00 89 1010.1
20260506105504 23 168 0.0 4.8 0.00 0.00 0.00 89 1009.4
20260506105008 23 209 0.0 3.2 0.00 0.00 0.00 89 1010.0
20260506105003 23 168 0.0 4.8 0.00 0.00 0.00 89 1009.4
20260506104519 23 202 0.0 8.0 0.00 0.00 0.00 89 1009.4
20260506104010 23 172 1.6 8.0 0.00 0.00 0.00 89 1009.2
20260506104007 23 209 0.0 3.2 0.00 0.00 0.00 89 1009.9
20260506103508 23 208 0.0 3.2 0.00 0.00 0.00 89 1009.9
20260506103503 23 192 1.6 6.4 0.00 0.00 0.00 89 1009.2
20260506103018 23 207 0.0 3.2 0.00 0.00 0.00 89 1009.9
20260506103008 23 180 3.2 9.7 0.00 0.00 0.00 89 1009.3
20260506102510 23 159 0.0 3.2 0.00 0.00 0.00 89 1009.9
20260506102503 23 209 3.2 8.0 0.00 0.00 0.00 89 1009.2
20260506102011 23 248 0.0 3.2 0.00 0.00 0.00 89 1009.8
20260506102004 23 202 3.2 8.0 0.00 0.00 0.00 89 1009.1
20260506101518 23 166 0.0 3.2 0.00 0.00 0.00 89 1009.8
20260506101512 23 138 4.8 6.4 0.00 0.00 0.00 89 1009.2
20260506101006 23 207 0.0 3.2 0.00 0.00 0.00 89 1009.8
20260506100508 23 196 3.2 8.0 0.00 0.00 0.00 89 1009.0
20260506100504 23 226 0.0 3.2 0.00 0.00 0.00 89 1009.7
20260506100017 23 182 0.0 3.2 0.00 0.00 0.00 89 1009.5
20260506100012 23 165 4.8 8.0 0.00 0.00 0.00 89 1008.9
20260506095506 23 242 0.0 3.2 0.00 0.00 0.00 89 1009.5
20260506095008 23 215 0.0 4.8 0.00 0.00 0.00 89 1009.5
20260506095006 23 210 3.2 12.9 0.00 0.00 0.00 89 1008.8
20260506094521 23 161 0.0 4.8 0.00 0.00 0.00 88 1009.4
20260506094507 23 153 4.8 12.9 0.00 0.00 0.00 88 1008.8
20260506094005 23 224 1.6 6.4 0.00 0.00 0.00 88 1009.3
20260506093507 23 163 0.0 6.4 0.00 0.00 0.00 89 1009.3
20260506093505 23 143 4.8 12.9 0.00 0.00 0.00 89 1008.6
20260506093033 23 157 3.2 9.7 0.00 0.00 0.00 89 1008.5
20260506093023 23 236 0.0 4.8 0.00 0.00 0.00 89 1009.1
20260506092508 23 246 1.6 4.8 0.00 0.00 0.00 89 1009.0
20260506092503 23 234 6.4 11.3 0.00 0.00 0.00 89 1008.4
20260506092007 23 198 1.6 6.4 0.00 0.00 0.00 89 1009.0
20260506092004 23 167 8.0 14.5 0.00 0.00 0.00 89 1008.4
20260506091525 23 209 0.0 6.4 0.00 0.00 0.00 89 1009.1
20260506091512 23 184 8.0 16.1 0.00 0.00 0.00 89 1008.5
20260506091010 23 222 0.0 3.2 0.00 0.00 0.00 89 1009.0
20260506091003 23 163 6.4 16.1 0.00 0.00 0.00 89 1008.3
20260506090507 23 201 8.0 16.1 0.00 0.00 0.00 89 1008.5
20260506090022 23 136 6.4 12.9 0.00 0.00 0.00 89 1008.5
20260506090014 23 160 1.6 4.8 0.00 0.00 0.00 89 1009.1
20260506085506 23 140 8.0 14.5 0.00 0.00 0.00 89 1008.4
20260506085011 23 186 1.6 3.2 0.00 0.00 0.00 89 1009.1
20260506085003 23 145 4.8 14.5 0.00 0.00 0.00 89 1008.4
20260506084531 23 173 6.4 19.3 0.00 0.00 0.00 89 1008.3
20260506084520 23 304 1.6 4.8 0.00 0.00 0.00 89 1009.1
20260506084008 23 165 6.4 17.7 0.00 0.00 0.00 89 1008.4
20260506083506 23 190 1.6 6.4 0.00 0.00 0.00 89 1009.0
20260506083504 23 143 9.7 17.7 0.00 0.00 0.00 89 1008.5
20260506083015 23 180 1.6 6.4 0.00 0.00 0.00 89 1009.0
20260506083013 23 174 6.4 19.3 0.00 0.00 0.00 89 1008.4
20260506082507 23 184 0.0 8.0 0.00 0.00 0.00 89 1009.0
20260506082013 23 71 6.4 19.3 0.00 0.00 0.00 89 1008.3
20260506081527 23 161 1.6 6.4 0.00 0.00 0.00 89 1008.9
20260506081512 23 178 4.8 14.5 0.00 0.00 0.00 89 1008.2
20260506081011 23 183 1.6 8.0 0.00 0.00 0.00 89 1008.9
20260506081004 23 235 6.4 19.3 0.00 0.00 0.00 89 1008.2
20260506080507 23 193 0.0 8.0 0.00 0.00 0.00 89 1009.0
20260506080503 23 254 6.4 22.5 0.00 0.00 0.00 89 1008.4
20260506073508 23 261 1.6 4.8 0.00 0.00 0.00 89 1009.3
20260506073024 23 178 9.7 17.7 0.00 0.00 0.00 89 1008.6
20260506072517 23 196 0.0 4.8 0.00 0.00 0.00 89 1009.3
20260506072512 23 200 9.7 19.3 0.00 0.00 0.00 89 1008.7
20260506072008 23 186 1.6 6.4 0.00 0.00 0.00 89 1009.3
20260506072003 23 157 9.7 19.3 0.00 0.00 0.00 89 1008.7
20260506071522 23 153 1.6 8.0 0.00 0.00 0.00 89 1009.4
20260506071520 23 155 8.0 19.3 0.00 0.00 0.00 89 1008.8
20260506071011 23 160 1.6 8.0 0.00 0.00 0.00 89 1009.4
20260506070508 23 150 1.6 6.4 0.00 0.00 0.00 89 1009.4
20260506070504 23 161 8.0 12.9 0.00 0.00 0.00 89 1008.8
20260506062511 23 136 1.6 6.4 0.00 0.00 0.00 89 1009.5
20260506062507 23 140 4.8 11.3 0.00 0.00 0.00 89 1008.9
20260506062011 23 160 4.8 11.3 0.00 0.00 0.00 89 1008.9
20260506062009 23 182 1.6 6.4 0.00 0.00 0.00 89 1009.5
20260506061529 23 220 4.8 12.9 0.00 0.00 0.00 89 1008.9
20260506061508 23 194 1.6 4.8 0.00 0.00 0.00 89 1009.6
20260506061010 23 158 4.8 12.9 0.00 0.00 0.00 89 1008.9
20260506061008 23 223 1.6 6.4 0.00 0.00 0.00 89 1009.5
20260506060508 23 155 4.8 12.9 0.00 0.00 0.00 89 1008.9
20260506051012 23 174 1.6 6.4 0.00 0.00 0.00 88 1009.7
20260506051007 23 158 6.4 17.7 0.00 0.00 0.00 88 1009.1
20260506050509 23 162 4.8 16.1 0.00 0.00 0.00 88 1008.9
20260506050506 23 181 1.6 6.4 0.00 0.00 0.00 88 1009.7
20260506045011 23 209 6.4 14.5 0.00 0.00 0.00 88 1009.0
20260506045005 23 217 0.0 8.0 0.00 0.00 0.00 88 1009.6
20260506044538 23 190 8.0 14.5 0.00 0.00 0.00 88 1009.0
20260506044512 23 165 1.6 8.0 0.00 0.00 0.00 88 1009.6
20260506044008 23 90 4.8 17.7 0.00 0.00 0.00 88 1008.9
20260506044004 23 176 1.6 8.0 0.00 0.00 0.00 88 1009.5
20260506043507 23 155 9.7 17.7 0.00 0.00 0.00 88 1008.9
20260506043504 23 211 0.0 6.4 0.00 0.00 0.00 88 1009.5
20260506043021 23 159 3.2 11.3 0.00 0.00 0.00 88 1008.8
20260506043012 23 202 0.0 8.0 0.00 0.00 0.00 88 1009.4
20260506042508 23 220 0.0 8.0 0.00 0.00 0.00 87 1009.5
20260506042504 23 153 4.8 12.9 0.00 0.00 0.00 87 1008.8
20260506042019 23 197 1.6 6.4 0.00 0.00 0.00 88 1009.5
20260506042009 23 146 4.8 12.9 0.00 0.00 0.00 88 1008.8
20260506041532 23 140 3.2 16.1 0.00 0.00 0.00 88 1008.7
20260506041530 23 194 1.6 8.0 0.00 0.00 0.00 88 1009.3
20260506041008 23 146 6.4 14.5 0.00 0.00 0.00 88 1008.7
20260506040510 23 159 0.0 6.4 0.00 0.00 0.00 87 1009.4
20260506040507 23 220 4.8 12.9 0.00 0.00 0.00 87 1008.7
20260506040033 23 150 3.2 9.7 0.00 0.00 0.00 87 1008.7
20260506040027 23 166 0.0 6.4 0.00 0.00 0.00 87 1009.4
20260506035509 23 151 3.2 8.0 0.00 0.00 0.00 87 1008.8
20260506035504 23 212 1.6 6.4 0.00 0.00 0.00 87 1009.4
20260506035006 23 154 1.6 6.4 0.00 0.00 0.00 87 1008.7
20260506035004 23 202 1.6 4.8 0.00 0.00 0.00 87 1009.4
20260506034531 23 149 1.6 9.7 0.00 0.00 0.00 86 1008.6
20260506034523 23 189 1.6 4.8 0.00 0.00 0.00 86 1009.2
20260506034008 23 136 3.2 9.7 0.00 0.00 0.00 86 1008.5
20260506034004 23 238 0.0 3.2 0.00 0.00 0.00 86 1009.2
20260506033512 23 173 3.2 14.5 0.00 0.00 0.00 85 1008.3
20260506033504 23 150 0.0 4.8 0.00 0.00 0.00 85 1009.0
20260506033020 23 140 4.8 14.5 0.00 0.00 0.00 85 1008.1
20260506033014 23 201 1.6 6.4 0.00 0.00 0.00 85 1008.8
20260506032513 23 213 0.0 6.4 0.00 0.00 0.00 85 1008.7
20260506032507 23 155 4.8 14.5 0.00 0.00 0.00 85 1008.1
20260506032009 23 160 6.4 14.5 0.00 0.00 0.00 85 1008.2
20260506031523 23 230 1.6 6.4 0.00 0.00 0.00 85 1008.6
20260506031520 23 178 6.4 14.5 0.00 0.00 0.00 85 1008.2
20260506031008 24 171 6.4 17.7 0.00 0.00 0.00 84 1008.1
20260506030508 24 163 1.6 6.4 0.00 0.00 0.00 84 1008.7
20260506030015 24 148 1.6 8.0 0.00 0.00 0.00 84 1008.4
20260506030004 24 133 4.8 17.7 0.00 0.00 0.00 84 1007.9
20260506025506 24 184 1.6 8.0 0.00 0.00 0.00 84 1008.4
20260506025010 24 146 1.6 8.0 0.00 0.00 0.00 84 1008.5
20260506025004 24 183 6.4 12.9 0.00 0.00 0.00 84 1007.8
20260506024530 24 175 1.6 6.4 0.00 0.00 0.00 84 1008.5
20260506024515 24 150 3.2 11.3 0.00 0.00 0.00 84 1007.6
20260506024006 24 190 1.6 6.4 0.00 0.00 0.00 84 1008.2
20260506024002 24 167 3.2 11.3 0.00 0.00 0.00 84 1007.6
20260506023508 24 124 1.6 8.0 0.00 0.00 0.00 85 1008.1
20260506023502 24 177 4.8 11.3 0.00 0.00 0.00 85 1007.6
20260506023016 24 134 3.2 8.0 0.00 0.00 0.00 84 1007.5
20260506023012 24 151 1.6 6.4 0.00 0.00 0.00 84 1008.1
20260506022508 24 132 0.0 4.8 0.00 0.00 0.00 84 1007.4
20260506022505 24 157 0.0 3.2 0.00 0.00 0.00 84 1008.1
20260506022007 24 162 0.0 3.2 0.00 0.00 0.00 83 1007.9
20260506021518 25 169 0.0 4.8 0.00 0.00 0.00 83 1007.8
20260506021507 25 149 1.6 11.3 0.00 0.00 0.00 83 1007.2
20260506021009 25 154 3.2 11.3 0.00 0.00 0.00 82 1007.2
20260506020512 25 186 3.2 6.4 0.00 0.00 0.00 83 1007.9
20260506020510 25 140 3.2 14.5 0.00 0.00 0.00 83 1007.1
20260506020025 25 157 1.6 3.2 0.00 0.00 0.00 83 1007.8
20260506020003 25 145 3.2 14.5 0.00 0.00 0.00 83 1007.1
20260506015508 25 198 0.0 3.2 0.00 0.00 0.00 83 1007.8
20260506015503 25 159 3.2 8.0 0.00 0.00 0.00 83 1007.1
20260506015007 25 175 0.0 3.2 0.00 0.00 0.00 84 1007.8
20260506015003 25 150 3.2 6.4 0.00 0.00 0.00 84 1007.1
20260506014522 25 81 0.0 3.2 0.00 0.00 0.00 83 1007.8
20260506014506 25 165 3.2 6.4 0.00 0.00 0.00 83 1007.1
20260506014010 25 165 0.0 3.2 0.00 0.00 0.00 83 1007.7
20260506014004 25 143 1.6 6.4 0.00 0.00 0.00 83 1007.1
20260506013511 25 197 0.0 3.2 0.00 0.00 0.00 83 1007.8
20260506013505 25 158 1.6 6.4 0.00 0.00 0.00 83 1007.1
20260506013024 25 121 0.0 4.8 0.00 0.00 0.00 83 1007.7
20260506013014 25 142 1.6 4.8 0.00 0.00 0.00 83 1007.1
20260506012509 25 167 0.0 4.8 0.00 0.00 0.00 82 1007.7
20260506012506 25 152 1.6 6.4 0.00 0.00 0.00 82 1007.1
20260506012008 25 156 3.2 11.3 0.00 0.00 0.00 81 1006.9
20260506012005 25 167 0.0 4.8 0.00 0.00 0.00 81 1007.7
20260506011535 25 158 1.6 11.3 0.00 0.00 0.00 81 1006.9
20260506011514 25 211 0.0 3.2 0.00 0.00 0.00 81 1007.5
20260506011010 26 123 3.2 9.7 0.00 0.00 0.00 81 1006.8
20260506011005 26 169 0.0 3.2 0.00 0.00 0.00 81 1007.6
20260506010510 26 194 0.0 3.2 0.00 0.00 0.00 81 1007.6
20260506010503 26 144 3.2 8.0 0.00 0.00 0.00 81 1006.9
20260506010026 26 194 0.0 3.2 0.00 0.00 0.00 81 1007.6
20260506010011 26 158 1.6 4.8 0.00 0.00 0.00 81 1006.8
20260506005508 26 159 1.6 4.8 0.00 0.00 0.00 80 1006.8
20260506005012 26 175 0.0 3.2 0.00 0.00 0.00 80 1007.5
20260506005007 26 111 1.6 6.4 0.00 0.00 0.00 80 1006.7
20260506004535 26 180 0.0 3.2 0.00 0.00 0.00 79 1007.4
20260506004511 26 171 1.6 6.4 0.00 0.00 0.00 79 1006.7
20260506004006 26 174 0.0 3.2 0.00 0.00 0.00 79 1007.4
20260506004003 26 159 1.6 6.4 0.00 0.00 0.00 79 1006.7
20260506003511 26 198 0.0 6.4 0.00 0.00 0.00 79 1007.3
20260506003503 26 163 3.2 12.9 0.00 0.00 0.00 79 1006.6
20260506003026 26 165 0.0 6.4 0.00 0.00 0.00 78 1007.1
20260506003006 26 157 3.2 12.9 0.00 0.00 0.00 78 1006.4
20260506002511 26 241 0.0 3.2 0.00 0.00 0.00 78 1007.1
20260506002504 26 153 4.8 12.9 0.00 0.00 0.00 78 1006.4
20260506002007 26 170 0.0 3.2 0.00 0.00 0.00 78 1007.1
20260506001522 27 132 0.0 3.2 0.00 0.00 0.00 77 1007.0
20260506001512 27 143 3.2 8.0 0.00 0.00 0.00 77 1006.3
20260506001006 27 250 0.0 3.2 0.00 0.00 0.00 77 1007.0
20260506001004 27 178 1.6 9.7 0.00 0.00 0.00 77 1006.3
20260506000508 27 207 0.0 8.0 0.00 0.00 0.00 77 1007.0
20260506000023 27 200 1.6 8.0 0.00 0.00 0.00 76 1006.9
20260506000021 27 160 4.8 9.7 0.00 0.00 0.00 76 1006.2
20260505235511 27 163 0.0 6.4 0.00 0.00 0.00 76 1007.0
20260505235502 27 171 3.2 8.0 0.00 0.00 0.00 76 1006.2
20260505235007 27 175 0.0 6.4 0.00 0.00 0.00 76 1006.9
20260505235003 27 141 3.2 8.0 0.00 0.00 0.00 76 1006.2
20260505234524 27 184 0.0 3.2 0.00 0.00 0.00 77 1006.9
20260505234522 27 166 1.6 8.0 0.00 0.00 0.00 77 1006.2
20260505234012 27 173 3.2 8.0 0.00 0.00 0.00 75 1006.2
20260505234006 27 192 0.0 6.4 0.00 0.00 0.00 75 1006.9
20260505233513 27 173 0.0 8.0 0.00 0.00 0.00 75 1006.9
20260505233504 27 145 3.2 14.5 0.00 0.00 0.00 75 1006.1
20260505233014 27 186 0.0 6.4 0.00 0.00 0.00 74 1006.9
20260505233005 27 190 4.8 14.5 0.00 0.00 0.00 74 1006.2
20260505232507 27 182 0.0 3.2 0.00 0.00 0.00 74 1006.9
20260505232505 27 162 3.2 14.5 0.00 0.00 0.00 74 1006.2
20260505232007 27 182 1.6 6.4 0.00 0.00 0.00 74 1006.8
20260505232003 27 171 1.6 14.5 0.00 0.00 0.00 74 1006.1
20260505231527 27 173 0.0 6.4 0.00 0.00 0.00 74 1006.8
20260505231512 27 150 3.2 12.9 0.00 0.00 0.00 74 1006.0
20260505231007 27 183 1.6 4.8 0.00 0.00 0.00 73 1006.8
20260505231004 27 166 3.2 12.9 0.00 0.00 0.00 73 1006.0
20260505230509 27 89 0.0 4.8 0.00 0.00 0.00 74 1006.8
20260505230506 27 168 4.8 12.9 0.00 0.00 0.00 74 1006.0
20260505230018 27 165 0.0 4.8 0.00 0.00 0.00 73 1006.8
20260505230009 27 150 3.2 12.9 0.00 0.00 0.00 73 1006.0
20260505225510 28 171 4.8 14.5 0.00 0.00 0.00 73 1006.0
20260505225506 28 171 1.6 6.4 0.00 0.00 0.00 73 1006.7
20260505225009 27 147 6.4 14.5 0.00 0.00 0.00 73 1006.1
20260505225007 27 210 0.0 8.0 0.00 0.00 0.00 73 1006.8
20260505224534 27 208 1.6 8.0 0.00 0.00 0.00 72 1006.9
20260505224508 27 132 8.0 16.1 0.00 0.00 0.00 72 1006.1
20260505224007 28 182 3.2 12.9 0.00 0.00 0.00 71 1006.9
20260505223514 28 197 1.6 12.9 0.00 0.00 0.00 72 1007.0
20260505223509 28 186 8.0 16.1 0.00 0.00 0.00 72 1006.2
20260505223038 28 220 1.6 9.7 0.00 0.00 0.00 71 1006.9
20260505223025 28 178 9.7 17.7 0.00 0.00 0.00 71 1006.2
20260505222507 28 163 1.6 9.7 0.00 0.00 0.00 70 1006.9
20260505222505 28 190 8.0 17.7 0.00 0.00 0.00 70 1006.1
20260505222009 28 216 1.6 9.7 0.00 0.00 0.00 71 1006.9
20260505222007 28 212 9.7 17.7 0.00 0.00 0.00 71 1006.1
20260505221524 28 206 1.6 9.7 0.00 0.00 0.00 72 1007.0
20260505221510 28 177 8.0 17.7 0.00 0.00 0.00 72 1006.3
20260505221012 28 198 1.6 9.7 0.00 0.00 0.00 73 1007.0
20260505221004 28 191 11.3 16.1 0.00 0.00 0.00 73 1006.3
20260505220509 27 179 1.6 4.8 0.00 0.00 0.00 74 1007.2
20260505220505 27 207 6.4 16.1 0.00 0.00 0.00 74 1006.5
20260505220033 27 227 1.6 12.9 0.00 0.00 0.00 73 1007.2
20260505220027 27 155 8.0 25.7 0.00 0.00 0.00 73 1006.5